| time (UTC) | temp C | wind direction | speed KPH | gust KPH | rain 1hr cm | rain 24hr cm | rain mn cm | humidity % | barometer mb |
| 20260508044343 | 7 | 203 | 0.0 | 1.6 | 0.00 | 0.05 | 0.05 | 80 | 1016.1 |
| 20260508043838 | 8 | 203 | 1.6 | 4.8 | 0.00 | 0.05 | 0.05 | 79 | 1016.1 |
| 20260508043347 | 8 | 202 | 1.6 | 6.4 | 0.00 | 0.05 | 0.05 | 81 | 1016.1 |
| 20260508042836 | 8 | 202 | 3.2 | 6.4 | 0.00 | 0.05 | 0.05 | 80 | 1016.1 |
| 20260508042326 | 8 | 200 | 3.2 | 4.8 | 0.00 | 0.05 | 0.05 | 80 | 1016.1 |
| 20260508041839 | 8 | 198 | 0.0 | 3.2 | 0.00 | 0.05 | 0.05 | 80 | 1016.0 |
| 20260508041328 | 8 | 198 | 1.6 | 4.8 | 0.00 | 0.05 | 0.05 | 79 | 1016.1 |
| 20260508040837 | 8 | 199 | 1.6 | 6.4 | 0.00 | 0.05 | 0.05 | 79 | 1016.0 |
| 20260508040327 | 8 | 201 | 3.2 | 6.4 | 0.00 | 0.05 | 0.05 | 79 | 1016.0 |
| 20260508035835 | 8 | 189 | 0.0 | 3.2 | 0.00 | 0.05 | 0.05 | 78 | 1016.0 |
| 20260508035352 | 8 | 189 | 0.0 | 3.2 | 0.00 | 0.05 | 0.05 | 78 | 1015.8 |
| 20260508034840 | 8 | 190 | 1.6 | 3.2 | 0.00 | 0.05 | 0.05 | 77 | 1015.9 |
| 20260508034330 | 8 | 189 | 1.6 | 3.2 | 0.00 | 0.05 | 0.05 | 76 | 1016.0 |
| 20260508033842 | 9 | 190 | 0.0 | 1.6 | 0.00 | 0.05 | 0.05 | 76 | 1015.8 |
| 20260508033330 | 9 | 190 | 0.0 | 3.2 | 0.00 | 0.05 | 0.05 | 76 | 1015.7 |
| 20260508032836 | 9 | 190 | 0.0 | 4.8 | 0.00 | 0.05 | 0.05 | 74 | 1015.6 |
| 20260508032347 | 10 | 189 | 0.0 | 8.0 | 0.00 | 0.05 | 0.05 | 74 | 1015.6 |
| 20260508031836 | 10 | 190 | 3.2 | 8.0 | 0.00 | 0.05 | 0.05 | 74 | 1015.5 |
| 20260508031345 | 10 | 223 | 3.2 | 4.8 | 0.00 | 0.05 | 0.05 | 73 | 1015.5 |
| 20260508030901 | 10 | 232 | 1.6 | 3.2 | 0.00 | 0.05 | 0.05 | 72 | 1015.4 |
| 20260508030336 | 10 | 232 | 1.6 | 3.2 | 0.00 | 0.05 | 0.05 | 72 | 1015.5 |
| 20260508025824 | 11 | 232 | 0.0 | 0.0 | 0.00 | 0.05 | 0.05 | 71 | 1015.3 |
| 20260508025401 | 11 | 232 | 0.0 | 1.6 | 0.00 | 0.05 | 0.05 | 70 | 1015.5 |
| 20260508024902 | 11 | 232 | 0.0 | 1.6 | 0.00 | 0.05 | 0.05 | 69 | 1015.3 |
| 20260508024329 | 12 | 232 | 0.0 | 3.2 | 0.00 | 0.05 | 0.05 | 68 | 1015.2 |
| 20260508023837 | 12 | 232 | 0.0 | 6.4 | 0.00 | 0.05 | 0.05 | 65 | 1015.2 |
| 20260508023332 | 12 | 232 | 3.2 | 6.4 | 0.00 | 0.05 | 0.05 | 65 | 1015.0 |
| 20260508022840 | 12 | 215 | 3.2 | 6.4 | 0.00 | 0.05 | 0.05 | 65 | 1015.2 |
| 20260508022330 | 12 | 212 | 3.2 | 8.0 | 0.00 | 0.05 | 0.05 | 65 | 1015.0 |
| 20260508021839 | 12 | 238 | 4.8 | 9.7 | 0.00 | 0.05 | 0.05 | 65 | 1015.1 |
| 20260508021336 | 12 | 214 | 6.4 | 9.7 | 0.00 | 0.05 | 0.05 | 65 | 1015.1 |
| 20260508020842 | 12 | 228 | 4.8 | 8.0 | 0.00 | 0.05 | 0.05 | 65 | 1015.1 |
| 20260508020356 | 13 | 200 | 4.8 | 8.0 | 0.00 | 0.05 | 0.05 | 63 | 1015.0 |
| 20260508015837 | 13 | 228 | 1.6 | 4.8 | 0.00 | 0.05 | 0.05 | 63 | 1015.0 |
| 20260508015344 | 13 | 228 | 1.6 | 4.8 | 0.00 | 0.05 | 0.05 | 63 | 1015.0 |
| 20260508014833 | 13 | 229 | 3.2 | 4.8 | 0.00 | 0.05 | 0.05 | 64 | 1015.0 |
| 20260508014351 | 13 | 226 | 3.2 | 4.8 | 0.00 | 0.05 | 0.05 | 63 | 1014.9 |
| 20260508013839 | 13 | 248 | 3.2 | 4.8 | 0.00 | 0.05 | 0.05 | 63 | 1014.9 |
| 20260508013331 | 13 | 248 | 3.2 | 11.3 | 0.00 | 0.05 | 0.05 | 64 | 1014.9 |
| 20260508012845 | 13 | 246 | 3.2 | 11.3 | 0.00 | 0.05 | 0.05 | 64 | 1014.9 |
| 20260508012331 | 13 | 259 | 4.8 | 8.0 | 0.00 | 0.05 | 0.05 | 65 | 1014.8 |
| 20260508011840 | 13 | 234 | 4.8 | 8.0 | 0.00 | 0.05 | 0.05 | 65 | 1014.9 |
| 20260508011335 | 13 | 189 | 1.6 | 6.4 | 0.00 | 0.05 | 0.05 | 68 | 1015.0 |
| 20260508010842 | 13 | 188 | 3.2 | 8.0 | 0.00 | 0.05 | 0.05 | 70 | 1015.0 |
| 20260508010330 | 13 | 149 | 3.2 | 8.0 | 0.00 | 0.05 | 0.05 | 71 | 1015.0 |
| 20260508005837 | 13 | 88 | 0.0 | 6.4 | 0.00 | 0.05 | 0.05 | 72 | 1014.9 |
| 20260508005355 | 13 | 101 | 3.2 | 8.0 | 0.00 | 0.05 | 0.05 | 72 | 1015.1 |
| 20260508004838 | 12 | 132 | 3.2 | 8.0 | 0.00 | 0.05 | 0.05 | 75 | 1015.1 |
| 20260508004346 | 12 | 289 | 4.8 | 6.4 | 0.00 | 0.05 | 0.05 | 74 | 1015.6 |
| 20260508003835 | 12 | 290 | 3.2 | 4.8 | 0.00 | 0.05 | 0.05 | 74 | 1015.5 |
| 20260508003337 | 12 | 229 | 0.0 | 3.2 | 0.00 | 0.05 | 0.05 | 75 | 1015.3 |
| 20260508002849 | 12 | 229 | 1.6 | 3.2 | 0.00 | 0.05 | 0.05 | 75 | 1015.4 |
| 20260508002338 | 12 | 232 | 1.6 | 8.0 | 0.00 | 0.05 | 0.05 | 75 | 1015.5 |
| 20260508001828 | 12 | 233 | 4.8 | 8.0 | 0.03 | 0.05 | 0.05 | 72 | 1015.5 |
| 20260508001334 | 12 | 13 | 3.2 | 3.2 | 0.03 | 0.05 | 0.05 | 71 | 1015.3 |
| 20260508000842 | 12 | 15 | 1.6 | 4.8 | 0.03 | 0.05 | 0.05 | 72 | 1015.1 |
| 20260508000350 | 12 | 14 | 1.6 | 4.8 | 0.03 | 0.05 | 0.05 | 70 | 1015.2 |
| 20260507235856 | 12 | 323 | 1.6 | 6.4 | 0.03 | 0.05 | 0.05 | 69 | 1015.0 |
| 20260507235325 | 12 | 355 | 3.2 | 6.4 | 0.03 | 0.05 | 0.05 | 71 | 1015.0 |
| 20260507234841 | 12 | 355 | 1.6 | 6.4 | 0.03 | 0.05 | 0.05 | 73 | 1015.0 |
| 20260507234328 | 12 | 339 | 1.6 | 9.7 | 0.03 | 0.05 | 0.05 | 75 | 1015.1 |
| 20260507233835 | 11 | 313 | 4.8 | 9.7 | 0.03 | 0.05 | 0.05 | 78 | 1015.2 |
| 20260507233334 | 11 | 328 | 4.8 | 12.9 | 0.03 | 0.05 | 0.05 | 76 | 1015.2 |
| 20260507232840 | 11 | 324 | 4.8 | 17.7 | 0.03 | 0.05 | 0.05 | 77 | 1014.9 |
| 20260507232335 | 11 | 325 | 8.0 | 17.7 | 0.03 | 0.05 | 0.05 | 74 | 1015.0 |
| 20260507231904 | 11 | 326 | 8.0 | 14.5 | 0.00 | 0.03 | 0.03 | 75 | 1014.8 |
| 20260507231330 | 11 | 345 | 8.0 | 20.9 | 0.00 | 0.03 | 0.03 | 78 | 1014.8 |
| 20260507230841 | 12 | 328 | 9.7 | 24.1 | 0.00 | 0.03 | 0.03 | 77 | 1014.8 |
| 20260507230330 | 12 | 35 | 11.3 | 33.8 | 0.00 | 0.03 | 0.03 | 72 | 1014.8 |
| 20260507225839 | 13 | 339 | 17.7 | 37.0 | 0.00 | 0.03 | 0.03 | 61 | 1014.9 |
| 20260507225344 | 15 | 15 | 11.3 | 37.0 | 0.00 | 0.03 | 0.03 | 57 | 1014.9 |
| 20260507224850 | 15 | 335 | 12.9 | 37.0 | 0.00 | 0.03 | 0.03 | 56 | 1014.9 |
| 20260507224340 | 16 | 325 | 8.0 | 19.3 | 0.00 | 0.03 | 0.03 | 52 | 1014.6 |
| 20260507223848 | 16 | 60 | 4.8 | 17.7 | 0.00 | 0.03 | 0.03 | 52 | 1014.5 |
| 20260507223336 | 16 | 323 | 8.0 | 16.1 | 0.00 | 0.03 | 0.03 | 53 | 1014.5 |
| 20260507222844 | 16 | 360 | 6.4 | 14.5 | 0.00 | 0.03 | 0.03 | 51 | 1014.5 |
| 20260507222339 | 16 | 335 | 6.4 | 9.7 | 0.00 | 0.03 | 0.03 | 50 | 1014.5 |
| 20260507221845 | 16 | 343 | 4.8 | 8.0 | 0.00 | 0.03 | 0.03 | 51 | 1014.4 |
| 20260507221334 | 16 | 63 | 3.2 | 14.5 | 0.00 | 0.03 | 0.03 | 50 | 1014.4 |
| 20260507220847 | 16 | 22 | 4.8 | 14.5 | 0.00 | 0.03 | 0.03 | 51 | 1014.4 |
| 20260507220335 | 16 | 78 | 3.2 | 6.4 | 0.00 | 0.03 | 0.03 | 57 | 1014.5 |
| 20260507215824 | 15 | 28 | 3.2 | 8.0 | 0.00 | 0.03 | 0.03 | 55 | 1014.6 |
| 20260507215337 | 15 | 328 | 1.6 | 14.5 | 0.00 | 0.03 | 0.03 | 55 | 1014.5 |
| 20260507214851 | 15 | 66 | 3.2 | 16.1 | 0.00 | 0.03 | 0.03 | 54 | 1014.6 |
| 20260507214340 | 15 | 321 | 9.7 | 16.1 | 0.00 | 0.03 | 0.03 | 52 | 1014.7 |
| 20260507213833 | 15 | 42 | 3.2 | 8.0 | 0.00 | 0.03 | 0.03 | 54 | 1014.7 |
| 20260507213342 | 15 | 355 | 4.8 | 9.7 | 0.00 | 0.03 | 0.03 | 53 | 1014.8 |
| 20260507212840 | 15 | 321 | 6.4 | 9.7 | 0.00 | 0.03 | 0.03 | 54 | 1014.9 |
| 20260507212334 | 15 | 319 | 6.4 | 9.7 | 0.00 | 0.03 | 0.03 | 54 | 1014.9 |
| 20260507211850 | 15 | 313 | 6.4 | 16.1 | 0.00 | 0.03 | 0.03 | 53 | 1015.0 |
| 20260507211340 | 15 | 315 | 8.0 | 20.9 | 0.00 | 0.03 | 0.03 | 53 | 1014.9 |
| 20260507210900 | 15 | 19 | 11.3 | 20.9 | 0.00 | 0.03 | 0.03 | 52 | 1014.9 |
| 20260507210330 | 15 | 9 | 4.8 | 14.5 | 0.00 | 0.03 | 0.03 | 52 | 1014.9 |
| 20260507205833 | 15 | 26 | 6.4 | 14.5 | 0.00 | 0.03 | 0.03 | 51 | 1014.9 |
| 20260507205346 | 16 | 318 | 0.0 | 9.7 | 0.00 | 0.03 | 0.03 | 51 | 1014.9 |
| 20260507204853 | 16 | 310 | 6.4 | 14.5 | 0.00 | 0.03 | 0.03 | 50 | 1014.9 |
| 20260507204340 | 16 | 328 | 9.7 | 14.5 | 0.00 | 0.03 | 0.03 | 49 | 1014.8 |
| 20260507203828 | 16 | 351 | 1.6 | 4.8 | 0.00 | 0.03 | 0.03 | 52 | 1014.7 |
| 20260507203345 | 16 | 298 | 1.6 | 8.0 | 0.00 | 0.03 | 0.03 | 51 | 1014.9 |
| 20260507202836 | 15 | 312 | 3.2 | 8.0 | 0.00 | 0.03 | 0.03 | 53 | 1015.0 |
| 20260507202346 | 15 | 40 | 3.2 | 12.9 | 0.00 | 0.03 | 0.03 | 55 | 1014.9 |
| 20260507201832 | 15 | 342 | 6.4 | 12.9 | 0.00 | 0.03 | 0.03 | 55 | 1014.9 |
| 20260507201333 | 15 | 321 | 4.8 | 14.5 | 0.00 | 0.03 | 0.03 | 54 | 1014.9 |
| 20260507200838 | 15 | 323 | 9.7 | 14.5 | 0.00 | 0.03 | 0.03 | 53 | 1015.0 |
| 20260507200327 | 16 | 355 | 3.2 | 12.9 | 0.00 | 0.03 | 0.03 | 55 | 1015.0 |
| 20260507195904 | 16 | 331 | 6.4 | 12.9 | 0.00 | 0.03 | 0.03 | 55 | 1015.0 |
| 20260507195337 | 16 | 346 | 1.6 | 9.7 | 0.00 | 0.03 | 0.03 | 54 | 1015.0 |
| 20260507194844 | 16 | 67 | 3.2 | 16.1 | 0.00 | 0.03 | 0.03 | 56 | 1014.9 |
| 20260507194327 | 15 | 67 | 4.8 | 16.1 | 0.00 | 0.03 | 0.03 | 59 | 1015.0 |
| 20260507193842 | 15 | 81 | 6.4 | 16.1 | 0.00 | 0.03 | 0.03 | 58 | 1015.0 |
| 20260507193350 | 15 | 36 | 3.2 | 8.0 | 0.00 | 0.03 | 0.03 | 59 | 1015.0 |
| 20260507192837 | 14 | 347 | 3.2 | 9.7 | 0.00 | 0.03 | 0.03 | 59 | 1015.2 |
| 20260507192401 | 13 | 327 | 4.8 | 9.7 | 0.00 | 0.03 | 0.03 | 62 | 1015.2 |
| 20260507191833 | 13 | 310 | 4.8 | 12.9 | 0.00 | 0.03 | 0.03 | 61 | 1015.1 |
| 20260507191350 | 13 | 325 | 4.8 | 12.9 | 0.00 | 0.03 | 0.03 | 63 | 1015.2 |
| 20260507190838 | 13 | 84 | 4.8 | 16.1 | 0.00 | 0.03 | 0.03 | 64 | 1015.3 |
| 20260507190328 | 13 | 309 | 9.7 | 16.1 | 0.00 | 0.03 | 0.03 | 64 | 1015.4 |
| 20260507185833 | 13 | 340 | 6.4 | 22.5 | 0.00 | 0.03 | 0.03 | 63 | 1015.3 |
| 20260507185343 | 13 | 318 | 9.7 | 22.5 | 0.00 | 0.03 | 0.03 | 64 | 1015.4 |
| 20260507184851 | 14 | 345 | 12.9 | 22.5 | 0.00 | 0.03 | 0.03 | 62 | 1015.5 |
| 20260507184342 | 14 | 340 | 6.4 | 24.1 | 0.00 | 0.03 | 0.03 | 63 | 1015.5 |
| 20260507183902 | 13 | 312 | 9.7 | 24.1 | 0.00 | 0.03 | 0.03 | 63 | 1015.6 |
| 20260507183329 | 13 | 313 | 8.0 | 19.3 | 0.00 | 0.03 | 0.03 | 62 | 1015.8 |
| 20260507182836 | 14 | 346 | 8.0 | 19.3 | 0.00 | 0.03 | 0.03 | 59 | 1015.7 |
| 20260507182350 | 15 | 325 | 11.3 | 22.5 | 0.00 | 0.03 | 0.03 | 52 | 1015.7 |
| 20260507181846 | 15 | 300 | 9.7 | 22.5 | 0.00 | 0.03 | 0.03 | 47 | 1015.6 |
| 20260507181358 | 15 | 273 | 9.7 | 20.9 | 0.00 | 0.03 | 0.03 | 48 | 1015.5 |
| 20260507180845 | 15 | 298 | 9.7 | 19.3 | 0.00 | 0.03 | 0.03 | 48 | 1015.5 |
| 20260507180339 | 15 | 269 | 4.8 | 14.5 | 0.00 | 0.03 | 0.03 | 53 | 1015.5 |
| 20260507175829 | 15 | 342 | 3.2 | 11.3 | 0.00 | 0.03 | 0.03 | 54 | 1015.5 |
| 20260507175328 | 15 | 232 | 6.4 | 11.3 | 0.00 | 0.03 | 0.03 | 53 | 1015.4 |
| 20260507174837 | 15 | 290 | 3.2 | 6.4 | 0.00 | 0.03 | 0.03 | 61 | 1015.3 |
| 20260507174340 | 15 | 319 | 3.2 | 6.4 | 0.00 | 0.03 | 0.03 | 56 | 1015.4 |
| 20260507173849 | 15 | 76 | 1.6 | 6.4 | 0.00 | 0.03 | 0.03 | 57 | 1015.3 |
| 20260507173337 | 15 | 312 | 3.2 | 6.4 | 0.00 | 0.03 | 0.03 | 57 | 1015.3 |
| 20260507172836 | 15 | 300 | 1.6 | 9.7 | 0.00 | 0.03 | 0.03 | 56 | 1015.3 |
| 20260507172342 | 15 | 339 | 4.8 | 9.7 | 0.00 | 0.03 | 0.03 | 58 | 1015.2 |
| 20260507171832 | 15 | 150 | 3.2 | 12.9 | 0.00 | 0.03 | 0.03 | 57 | 1015.1 |
| 20260507171324 | 15 | 317 | 6.4 | 14.5 | 0.00 | 0.03 | 0.03 | 59 | 1015.2 |
| 20260507170832 | 15 | 320 | 4.8 | 22.5 | 0.00 | 0.03 | 0.03 | 60 | 1015.2 |
| 20260507170341 | 15 | 317 | 14.5 | 22.5 | 0.00 | 0.03 | 0.03 | 61 | 1015.2 |
| 20260507165828 | 14 | 46 | 4.8 | 12.9 | 0.00 | 0.03 | 0.03 | 64 | 1015.2 |
| 20260507165335 | 14 | 49 | 8.0 | 12.9 | 0.00 | 0.03 | 0.03 | 63 | 1015.3 |
| 20260507164827 | 14 | 325 | 8.0 | 12.9 | 0.00 | 0.03 | 0.03 | 62 | 1015.2 |
| 20260507164335 | 14 | 340 | 3.2 | 12.9 | 0.00 | 0.03 | 0.03 | 67 | 1015.2 |
| 20260507163826 | 14 | 355 | 6.4 | 9.7 | 0.00 | 0.03 | 0.03 | 61 | 1015.2 |
| 20260507163334 | 15 | 44 | 3.2 | 16.1 | 0.00 | 0.03 | 0.03 | 58 | 1015.0 |
| 20260507162852 | 15 | 319 | 6.4 | 16.1 | 0.00 | 0.03 | 0.03 | 53 | 1015.1 |
| 20260507162334 | 15 | 270 | 1.6 | 14.5 | 0.00 | 0.03 | 0.03 | 55 | 1015.1 |
| 20260507161842 | 15 | 240 | 6.4 | 19.3 | 0.00 | 0.03 | 0.03 | 54 | 1015.2 |
| 20260507161349 | 15 | 251 | 9.7 | 24.1 | 0.00 | 0.03 | 0.03 | 48 | 1015.2 |
| 20260507160829 | 15 | 319 | 12.9 | 24.1 | 0.00 | 0.03 | 0.03 | 48 | 1015.1 |
| 20260507160336 | 15 | 225 | 6.4 | 16.1 | 0.00 | 0.03 | 0.03 | 50 | 1015.2 |
| 20260507155856 | 15 | 337 | 3.2 | 14.5 | 0.00 | 0.03 | 0.03 | 52 | 1015.1 |
| 20260507155323 | 14 | 292 | 8.0 | 17.7 | 0.00 | 0.03 | 0.03 | 54 | 1015.2 |
| 20260507154835 | 14 | 338 | 4.8 | 17.7 | 0.00 | 0.03 | 0.03 | 56 | 1015.1 |
| 20260507154323 | 13 | 234 | 4.8 | 19.3 | 0.00 | 0.03 | 0.03 | 60 | 1015.1 |
| 20260507153841 | 12 | 234 | 1.6 | 6.4 | 0.00 | 0.03 | 0.03 | 69 | 1015.2 |
| 20260507153329 | 12 | 55 | 0.0 | 3.2 | 0.00 | 0.03 | 0.03 | 68 | 1015.3 |
| 20260507152846 | 12 | 53 | 0.0 | 3.2 | 0.00 | 0.03 | 0.03 | 70 | 1015.2 |
| 20260507152340 | 11 | 55 | 0.0 | 4.8 | 0.00 | 0.03 | 0.03 | 70 | 1015.2 |
| 20260507151829 | 11 | 55 | 1.6 | 6.4 | 0.00 | 0.03 | 0.03 | 69 | 1015.3 |
| 20260507151335 | 11 | 49 | 3.2 | 12.9 | 0.00 | 0.03 | 0.03 | 69 | 1015.4 |
| 20260507150832 | 11 | 330 | 4.8 | 12.9 | 0.00 | 0.03 | 0.03 | 68 | 1015.3 |
| 20260507150341 | 11 | 326 | 3.2 | 9.7 | 0.00 | 0.03 | 0.03 | 70 | 1015.5 |
| 20260507145834 | 11 | 323 | 6.4 | 9.7 | 0.00 | 0.03 | 0.03 | 72 | 1015.5 |
| 20260507145324 | 11 | 332 | 6.4 | 12.9 | 0.00 | 0.03 | 0.03 | 71 | 1015.5 |
| 20260507144841 | 11 | 317 | 8.0 | 12.9 | 0.00 | 0.03 | 0.03 | 69 | 1015.4 |
| 20260507144330 | 11 | 327 | 6.4 | 9.7 | 0.00 | 0.03 | 0.03 | 71 | 1015.2 |
| 20260507143839 | 11 | 321 | 3.2 | 9.7 | 0.00 | 0.03 | 0.03 | 72 | 1014.9 |
| 20260507143327 | 10 | 331 | 6.4 | 9.7 | 0.00 | 0.03 | 0.03 | 74 | 1014.9 |
| 20260507142850 | 10 | 360 | 4.8 | 6.4 | 0.00 | 0.03 | 0.03 | 75 | 1014.7 |
| 20260507142340 | 10 | 297 | 1.6 | 6.4 | 0.00 | 0.03 | 0.03 | 74 | 1014.7 |
| 20260507141856 | 10 | 297 | 3.2 | 6.4 | 0.00 | 0.03 | 0.03 | 75 | 1014.6 |
| 20260507141344 | 9 | 298 | 1.6 | 8.0 | 0.00 | 0.03 | 0.03 | 77 | 1014.7 |
| 20260507140859 | 8 | 298 | 1.6 | 8.0 | 0.00 | 0.03 | 0.03 | 77 | 1014.6 |
| 20260507140337 | 8 | 323 | 4.8 | 6.4 | 0.00 | 0.03 | 0.03 | 79 | 1014.7 |
| 20260507135833 | 8 | 360 | 0.0 | 4.8 | 0.00 | 0.03 | 0.03 | 79 | 1014.5 |
| 20260507135343 | 8 | 11 | 1.6 | 3.2 | 0.00 | 0.03 | 0.03 | 78 | 1014.5 |
| 20260507134833 | 8 | 201 | 0.0 | 8.0 | 0.00 | 0.03 | 0.03 | 79 | 1014.6 |
| 20260507134335 | 8 | 203 | 1.6 | 12.9 | 0.00 | 0.03 | 0.03 | 79 | 1014.5 |
| 20260507133837 | 8 | 212 | 6.4 | 12.9 | 0.00 | 0.03 | 0.03 | 80 | 1014.3 |
| 20260507133353 | 7 | 203 | 6.4 | 9.7 | 0.00 | 0.03 | 0.03 | 81 | 1014.4 |
| 20260507132838 | 7 | 206 | 4.8 | 8.0 | 0.00 | 0.03 | 0.03 | 82 | 1014.4 |
| 20260507132346 | 7 | 206 | 4.8 | 6.4 | 0.00 | 0.03 | 0.03 | 83 | 1014.5 |
| 20260507131829 | 7 | 193 | 1.6 | 3.2 | 0.00 | 0.03 | 0.03 | 83 | 1014.5 |
| 20260507131349 | 7 | 194 | 0.0 | 3.2 | 0.00 | 0.03 | 0.03 | 83 | 1014.6 |
| 20260507130836 | 7 | 194 | 1.6 | 4.8 | 0.00 | 0.03 | 0.03 | 83 | 1014.6 |
| 20260507130324 | 7 | 192 | 0.0 | 9.7 | 0.00 | 0.03 | 0.03 | 82 | 1014.5 |
| 20260507125837 | 7 | 194 | 4.8 | 9.7 | 0.00 | 0.03 | 0.03 | 82 | 1014.4 |
| 20260507125411 | 7 | 177 | 3.2 | 11.3 | 0.00 | 0.03 | 0.03 | 82 | 1014.4 |
| 20260507124837 | 7 | 169 | 4.8 | 11.3 | 0.00 | 0.03 | 0.03 | 81 | 1014.3 |
| 20260507124344 | 7 | 175 | 4.8 | 11.3 | 0.00 | 0.03 | 0.03 | 80 | 1014.2 |
| 20260507123847 | 7 | 171 | 4.8 | 11.3 | 0.00 | 0.03 | 0.03 | 79 | 1014.1 |
| 20260507123331 | 8 | 172 | 6.4 | 11.3 | 0.00 | 0.03 | 0.03 | 78 | 1014.2 |
| 20260507122908 | 8 | 170 | 3.2 | 8.0 | 0.00 | 0.03 | 0.03 | 78 | 1014.2 |
| 20260507122335 | 8 | 205 | 1.6 | 12.9 | 0.00 | 0.03 | 0.03 | 77 | 1014.2 |
| 20260507121851 | 8 | 218 | 6.4 | 12.9 | 0.00 | 0.03 | 0.03 | 77 | 1014.2 |
| 20260507121340 | 8 | 213 | 8.0 | 14.5 | 0.00 | 0.03 | 0.03 | 77 | 1014.3 |
| 20260507120827 | 8 | 218 | 8.0 | 14.5 | 0.00 | 0.03 | 0.03 | 77 | 1014.2 |
| 20260507120330 | 8 | 209 | 6.4 | 11.3 | 0.00 | 0.03 | 0.03 | 77 | 1014.1 |
| 20260507115843 | 8 | 204 | 6.4 | 11.3 | 0.00 | 0.03 | 0.03 | 76 | 1014.2 |
| 20260507115337 | 8 | 192 | 6.4 | 8.0 | 0.00 | 0.03 | 0.03 | 76 | 1014.2 |
| 20260507114846 | 8 | 224 | 6.4 | 8.0 | 0.00 | 0.03 | 0.03 | 77 | 1014.2 |
| 20260507114341 | 8 | 232 | 4.8 | 8.0 | 0.00 | 0.03 | 0.03 | 77 | 1014.2 |
| 20260507113833 | 8 | 209 | 3.2 | 9.7 | 0.00 | 0.03 | 0.03 | 77 | 1014.2 |
| 20260507113356 | 8 | 190 | 3.2 | 9.7 | 0.00 | 0.03 | 0.03 | 77 | 1014.2 |
| 20260507112824 | 8 | 198 | 4.8 | 8.0 | 0.00 | 0.03 | 0.03 | 78 | 1014.4 |
| 20260507112354 | 8 | 193 | 1.6 | 6.4 | 0.00 | 0.03 | 0.03 | 78 | 1014.3 |
| 20260507111835 | 8 | 193 | 3.2 | 4.8 | 0.00 | 0.03 | 0.03 | 78 | 1014.4 |
| 20260507111353 | 8 | 194 | 1.6 | 4.8 | 0.00 | 0.03 | 0.03 | 78 | 1014.4 |
| 20260507110842 | 8 | 208 | 1.6 | 6.4 | 0.00 | 0.03 | 0.03 | 78 | 1014.4 |
| 20260507110328 | 8 | 209 | 3.2 | 11.3 | 0.00 | 0.03 | 0.03 | 78 | 1014.4 |
| 20260507105841 | 8 | 222 | 6.4 | 11.3 | 0.00 | 0.03 | 0.03 | 78 | 1014.5 |
| 20260507105333 | 8 | 240 | 3.2 | 4.8 | 0.03 | 0.03 | 0.03 | 79 | 1014.5 |
| 20260507104828 | 8 | 319 | 3.2 | 12.9 | 0.03 | 0.03 | 0.03 | 81 | 1014.6 |
| 20260507104332 | 9 | 97 | 0.0 | 12.9 | 0.03 | 0.03 | 0.03 | 80 | 1014.7 |
| 20260507103849 | 9 | 163 | 6.4 | 12.9 | 0.03 | 0.03 | 0.03 | 80 | 1014.9 |
| 20260507103337 | 9 | 184 | 4.8 | 11.3 | 0.03 | 0.03 | 0.03 | 80 | 1014.9 |
| 20260507102842 | 9 | 167 | 6.4 | 9.7 | 0.03 | 0.03 | 0.03 | 79 | 1015.0 |
| 20260507102327 | 10 | 74 | 3.2 | 4.8 | 0.03 | 0.03 | 0.03 | 77 | 1014.9 |
| 20260507101834 | 10 | 333 | 1.6 | 19.3 | 0.03 | 0.03 | 0.03 | 76 | 1014.7 |
| 20260507101323 | 10 | 329 | 4.8 | 24.1 | 0.03 | 0.03 | 0.03 | 75 | 1014.7 |
| 20260507100840 | 10 | 335 | 11.3 | 29.0 | 0.03 | 0.03 | 0.03 | 75 | 1014.8 |
| 20260507100342 | 10 | 314 | 17.7 | 35.4 | 0.03 | 0.03 | 0.03 | 74 | 1015.1 |
| 20260507095846 | 10 | 346 | 17.7 | 27.4 | 0.00 | 0.00 | 0.00 | 73 | 1015.0 |
| 20260507095338 | 11 | 294 | 16.1 | 27.4 | 0.00 | 0.00 | 0.00 | 67 | 1015.0 |
| 20260507094839 | 12 | 296 | 11.3 | 33.8 | 0.00 | 0.00 | 0.00 | 63 | 1015.0 |
| 20260507094355 | 12 | 333 | 20.9 | 33.8 | 0.00 | 0.00 | 0.00 | 60 | 1014.9 |
| 20260507093824 | 13 | 315 | 16.1 | 41.8 | 0.00 | 0.00 | 0.00 | 57 | 1014.6 |
| 20260507093400 | 13 | 301 | 16.1 | 41.8 | 0.00 | 0.00 | 0.00 | 56 | 1014.2 |
| 20260507092904 | 13 | 300 | 16.1 | 30.6 | 0.00 | 0.00 | 0.00 | 56 | 1014.2 |
| 20260507092358 | 13 | 244 | 12.9 | 30.6 | 0.00 | 0.00 | 0.00 | 55 | 1013.8 |
| 20260507091843 | 11 | 319 | 14.5 | 29.0 | 0.00 | 0.00 | 0.00 | 58 | 1013.6 |
| 20260507091332 | 11 | 323 | 4.8 | 12.9 | 0.00 | 0.00 | 0.00 | 59 | 1013.6 |
| 20260507090848 | 11 | 262 | 1.6 | 4.8 | 0.00 | 0.00 | 0.00 | 59 | 1013.4 |
| 20260507090342 | 11 | 137 | 1.6 | 9.7 | 0.00 | 0.00 | 0.00 | 58 | 1013.5 |
| 20260507085853 | 11 | 105 | 3.2 | 9.7 | 0.00 | 0.00 | 0.00 | 59 | 1013.4 |
| 20260507085345 | 11 | 177 | 0.0 | 3.2 | 0.00 | 0.00 | 0.00 | 58 | 1013.2 |
| 20260507084838 | 11 | 176 | 1.6 | 3.2 | 0.00 | 0.00 | 0.00 | 57 | 1013.2 |
| 20260507084325 | 11 | 176 | 1.6 | 11.3 | 0.00 | 0.00 | 0.00 | 56 | 1013.3 |
| 20260507083843 | 11 | 271 | 4.8 | 11.3 | 0.00 | 0.00 | 0.00 | 57 | 1013.3 |
| 20260507083328 | 11 | 194 | 1.6 | 9.7 | 0.00 | 0.00 | 0.00 | 56 | 1013.1 |
| 20260507082842 | 11 | 186 | 3.2 | 12.9 | 0.00 | 0.00 | 0.00 | 56 | 1013.1 |
| 20260507082345 | 11 | 205 | 6.4 | 12.9 | 0.00 | 0.00 | 0.00 | 56 | 1013.2 |
| 20260507081835 | 11 | 190 | 8.0 | 11.3 | 0.00 | 0.00 | 0.00 | 57 | 1013.2 |
| 20260507081344 | 11 | 161 | 4.8 | 14.5 | 0.00 | 0.00 | 0.00 | 57 | 1013.2 |
| 20260507080832 | 11 | 144 | 6.4 | 11.3 | 0.00 | 0.00 | 0.00 | 57 | 1013.2 |
| 20260507080341 | 11 | 167 | 3.2 | 8.0 | 0.00 | 0.00 | 0.00 | 57 | 1013.1 |
| 20260507075859 | 11 | 188 | 3.2 | 11.3 | 0.00 | 0.00 | 0.00 | 58 | 1013.0 |
| 20260507075346 | 11 | 201 | 4.8 | 11.3 | 0.00 | 0.00 | 0.00 | 58 | 1012.9 |
| 20260507074909 | 11 | 175 | 6.4 | 9.7 | 0.00 | 0.00 | 0.00 | 57 | 1013.0 |
| 20260507074330 | 11 | 215 | 4.8 | 9.7 | 0.00 | 0.00 | 0.00 | 57 | 1012.9 |
| 20260507073904 | 12 | 178 | 4.8 | 8.0 | 0.00 | 0.00 | 0.00 | 58 | 1012.8 |
| 20260507073359 | 12 | 168 | 6.4 | 8.0 | 0.00 | 0.00 | 0.00 | 57 | 1013.0 |
| 20260507072827 | 12 | 241 | 3.2 | 8.0 | 0.00 | 0.00 | 0.00 | 57 | 1013.0 |
| 20260507072335 | 12 | 213 | 3.2 | 11.3 | 0.00 | 0.00 | 0.00 | 56 | 1013.0 |
| 20260507071851 | 12 | 244 | 4.8 | 11.3 | 0.00 | 0.00 | 0.00 | 56 | 1013.0 |
| 20260507071335 | 12 | 246 | 4.8 | 8.0 | 0.00 | 0.00 | 0.00 | 57 | 1013.1 |
| 20260507070849 | 12 | 199 | 4.8 | 8.0 | 0.00 | 0.00 | 0.00 | 56 | 1013.0 |
| 20260507070335 | 12 | 216 | 3.2 | 8.0 | 0.00 | 0.00 | 0.00 | 56 | 1013.0 |
| 20260507065902 | 12 | 225 | 4.8 | 6.4 | 0.00 | 0.00 | 0.00 | 58 | 1013.1 |
| 20260507065337 | 12 | 157 | 1.6 | 3.2 | 0.00 | 0.00 | 0.00 | 57 | 1012.9 |
| 20260507064823 | 12 | 156 | 0.0 | 3.2 | 0.00 | 0.00 | 0.00 | 57 | 1013.0 |
| 20260507064336 | 12 | 157 | 1.6 | 3.2 | 0.00 | 0.00 | 0.00 | 56 | 1013.1 |
| 20260507063846 | 12 | 156 | 1.6 | 3.2 | 0.00 | 0.00 | 0.00 | 56 | 1013.1 |
| 20260507063348 | 12 | 157 | 0.0 | 1.6 | 0.00 | 0.00 | 0.00 | 56 | 1013.2 |
| 20260507062834 | 12 | 157 | 0.0 | 0.0 | 0.00 | 0.00 | 0.00 | 55 | 1013.4 |
| 20260507062323 | 12 | 157 | 0.0 | 1.6 | 0.00 | 0.00 | 0.00 | 55 | 1013.3 |
| 20260507061843 | 13 | 157 | 1.6 | 1.6 | 0.00 | 0.00 | 0.00 | 55 | 1013.3 |
| 20260507061332 | 13 | 157 | 0.0 | 3.2 | 0.00 | 0.00 | 0.00 | 54 | 1013.3 |
| 20260507060839 | 13 | 157 | 1.6 | 3.2 | 0.00 | 0.00 | 0.00 | 54 | 1013.2 |
| 20260507060337 | 13 | 159 | 1.6 | 4.8 | 0.00 | 0.00 | 0.00 | 53 | 1013.3 |
| 20260507055840 | 13 | 157 | 1.6 | 4.8 | 0.00 | 0.00 | 0.00 | 54 | 1013.4 |
| 20260507055329 | 13 | 156 | 0.0 | 3.2 | 0.00 | 0.00 | 0.00 | 53 | 1013.4 |
| 20260507054841 | 13 | 157 | 1.6 | 3.2 | 0.00 | 0.00 | 0.00 | 53 | 1013.3 |
| 20260507054328 | 13 | 157 | 1.6 | 4.8 | 0.00 | 0.00 | 0.00 | 53 | 1013.2 |
| 20260507053838 | 13 | 157 | 0.0 | 4.8 | 0.00 | 0.00 | 0.00 | 52 | 1013.3 |
| 20260507053326 | 13 | 156 | 0.0 | 3.2 | 0.00 | 0.00 | 0.00 | 52 | 1013.4 |
| 20260507052832 | 13 | 157 | 0.0 | 3.2 | 0.00 | 0.00 | 0.00 | 52 | 1013.5 |
| 20260507052345 | 13 | 157 | 1.6 | 8.0 | 0.00 | 0.00 | 0.00 | 54 | 1013.4 |
| 20260507051829 | 14 | 165 | 6.4 | 8.0 | 0.00 | 0.00 | 0.00 | 52 | 1013.4 |
| 20260507051347 | 14 | 282 | 3.2 | 4.8 | 0.00 | 0.00 | 0.00 | 51 | 1013.2 |
| 20260507050836 | 14 | 298 | 0.0 | 3.2 | 0.00 | 0.00 | 0.00 | 50 | 1013.3 |
| 20260507050354 | 15 | 302 | 0.0 | 3.2 | 0.00 | 0.00 | 0.00 | 50 | 1013.4 |
| 20260507045848 | 15 | 302 | 1.6 | 12.9 | 0.00 | 0.00 | 0.00 | 48 | 1013.3 |
| 20260507045337 | 15 | 313 | 3.2 | 33.8 | 0.00 | 0.00 | 0.00 | 48 | 1013.3 |
| 20260507044824 | 16 | 340 | 17.7 | 38.6 | 0.00 | 0.00 | 0.00 | 48 | 1013.2 |